Location: Asheville, NC
(35.6000°N, 82.5500°W)
Time: 03:29:59
(UTC-04:00)

Iridium 12 - Visible Passes

Search period start: 21 April 2018 00:00
Search period end: 01 May 2018 00:00
Orbit: 761 x 765 km, 86.4° (Epoch: 20 April)

Date Brightness Start Highest point End Pass type
(mag) Time Alt. Az. Time Alt. Az. Time Alt. Az.
21 Apr 8.2 01:59:49 14° NNE 01:59:49 14° NNE 02:00:39 10° NNE visible
22 Apr 8.0 03:02:13 15° NNW 03:02:13 15° NNW 03:03:09 10° NNW visible
23 Apr 8.0 02:24:26 17° N 02:24:26 17° N 02:25:39 10° N visible
24 Apr 8.1 01:46:40 15° NNE 01:46:40 15° NNE 01:47:38 10° NNE visible
25 Apr 8.3 01:08:53 10° NE 01:08:53 10° NE 01:08:59 10° NE visible
25 Apr 8.0 02:49:02 15° NNW 02:49:02 15° NNW 02:50:00 10° NNW visible
26 Apr 7.9 02:11:15 18° N 02:11:15 18° N 02:12:34 10° N visible
27 Apr 8.0 01:33:27 17° NNE 01:33:27 17° NNE 01:34:36 10° NNE visible
28 Apr 8.2 00:55:39 12° NE 00:55:39 12° NE 00:56:03 10° NNE visible
28 Apr 8.0 02:35:49 15° NNW 02:35:49 15° NNW 02:36:50 10° NNW visible
29 Apr 7.8 01:58:00 19° N 01:58:00 19° N 01:59:28 10° N visible
30 Apr 7.9 01:20:12 18° NNE 01:20:12 18° NNE 01:21:34 10° NNE visible
